Location: Worth Mountain WMA
(34.9569°N, 81.4819°W)
Time: 00:52:12
(UTC-04:00)

NOSS 3-1 (A) - Pass Details

Date: 18 August 2017
Orbit: 824 x 1388 km, 63.4° (Epoch: 21 September)

Event Time Altitude Azimuth Distance (km) Brightness Sun altitude
Rises 20:59:19 0° 227° (SW) 3,371 6.7 -10.3°
Reaches altitude 10° 21:01:46 10° 233° (SW) 2,471 6.0 -10.7°
Maximum altitude 21:07:14 47° 307° (NW) 1,175 4.5 -11.8°
Drops below altitude 10° 21:13:19 10° 21° (NNE) 2,750 5.9 -12.9°
Sets 21:16:11 0° 27° (NNE) 3,790 6.6 -13.4°
